CW2972 Weather Reports


Display with metric or nautical units.
time (UTC)temp
F
wind
direction
speed
MPH
gust
MPH
rain 1hr
in
rain 24hr
in
rain mn
in
humidity
%
barometer
mb
20260502001045 58 290 1.0 4.0 0.00 0.00 0.00 54 1016.0
20260502000825 59 287 1.0 4.0 0.00 0.00 0.00 53 1016.0
20260502000454 59 303 1.0 4.0 0.00 0.00 0.00 52 1016.0
20260502000242 59 326 1.0 3.0 0.00 0.00 0.00 53 1016.0
20260502000136 59 323 1.0 3.0 0.00 0.00 0.00 53 1015.9
20260501235636 59 327 1.0 7.0 0.00 0.00 0.00 52 1015.8
20260501235612 59 332 1.0 7.0 0.00 0.00 0.00 52 1015.8
20260501235433 59 343 1.0 7.0 0.00 0.00 0.00 52 1015.8
20260501234704 60 351 1.0 7.0 0.00 0.00 0.00 52 1015.7
20260501234436 60 354 1.0 5.0 0.00 0.00 0.00 52 1015.7
20260501234331 60 356 1.0 5.0 0.00 0.00 0.00 51 1015.6
20260501233902 60 327 1.0 4.0 0.00 0.00 0.00 52 1015.5
20260501233701 60 21 1.0 4.0 0.00 0.00 0.00 53 1015.5
20260501233521 60 22 1.0 4.0 0.00 0.00 0.00 53 1015.4
20260501232925 60 314 1.0 4.0 0.00 0.00 0.00 52 1015.3
20260501232730 60 296 1.0 5.0 0.00 0.00 0.00 52 1015.4
20260501232446 60 336 2.0 5.0 0.00 0.00 0.00 52 1015.3
20260501232310 60 334 2.0 6.0 0.00 0.00 0.00 51 1015.4
20260501231758 60 4 1.0 10.0 0.00 0.00 0.00 52 1015.4
20260501231602 60 352 1.0 10.0 0.00 0.00 0.00 51 1015.3
20260501231126 60 311 1.0 10.0 0.00 0.00 0.00 51 1015.5
20260501230942 61 325 1.0 10.0 0.00 0.00 0.00 51 1015.5
20260501230736 61 353 2.0 5.0 0.00 0.00 0.00 50 1015.3
20260501230533 61 332 2.0 5.0 0.00 0.00 0.00 50 1015.2
20260501230430 61 307 2.0 6.0 0.00 0.00 0.00 50 1015.3
20260501230222 61 300 2.0 6.0 0.00 0.00 0.00 49 1015.2
20260501230212 61 300 2.0 6.0 0.00 0.00 0.00 49 1015.2
20260501225625 61 281 2.0 6.0 0.00 0.00 0.00 48 1015.2
20260501225342 61 287 2.0 6.0 0.00 0.00 0.00 48 1015.2
20260501225146 61 291 2.0 6.0 0.00 0.00 0.00 47 1015.2
20260501225010 61 290 2.0 6.0 0.00 0.00 0.00 49 1015.2
20260501224816 61 289 2.0 6.0 0.00 0.00 0.00 48 1015.2
20260501224605 61 295 1.0 6.0 0.00 0.00 0.00 47 1015.3
20260501224338 62 290 1.0 6.0 0.00 0.00 0.00 49 1015.3
20260501224208 62 299 1.0 6.0 0.00 0.00 0.00 50 1015.2
20260501223927 62 291 1.0 6.0 0.00 0.00 0.00 49 1015.2
20260501223740 62 290 2.0 6.0 0.00 0.00 0.00 50 1015.3
20260501223549 62 291 2.0 6.0 0.00 0.00 0.00 48 1015.3
20260501223405 62 321 2.0 9.0 0.00 0.00 0.00 48 1015.2
20260501223149 62 303 2.0 9.0 0.00 0.00 0.00 48 1015.3
20260501222623 62 294 3.0 9.0 0.00 0.00 0.00 48 1015.2
20260501222341 62 321 3.0 12.0 0.00 0.00 0.00 46 1015.1
20260501222210 62 14 3.0 12.0 0.00 0.00 0.00 47 1015.0
20260501222010 62 30 2.0 12.0 0.00 0.00 0.00 47 1015.2
20260501221427 62 34 2.0 9.0 0.00 0.00 0.00 46 1015.0
20260501221124 62 301 2.0 7.0 0.00 0.00 0.00 46 1015.1
20260501221019 62 276 2.0 7.0 0.00 0.00 0.00 47 1015.1
20260501220740 62 272 2.0 6.0 0.00 0.00 0.00 46 1015.1
20260501220552 62 275 2.0 6.0 0.00 0.00 0.00 46 1015.1
20260501220405 62 280 2.0 6.0 0.00 0.00 0.00 45 1015.1
20260501220004 62 300 2.0 9.0 0.00 0.00 0.00 47 1015.1
20260501215526 62 330 3.0 9.0 0.00 0.00 0.00 47 1015.1
20260501215335 62 312 3.0 9.0 0.00 0.00 0.00 45 1015.1
20260501214926 62 299 2.0 9.0 0.00 0.00 0.00 45 1015.1
20260501214913 62 300 2.0 9.0 0.00 0.00 0.00 45 1015.1
20260501214435 63 290 2.0 6.0 0.00 0.00 0.00 44 1015.1
20260501214129 63 349 2.0 8.0 0.00 0.00 0.00 45 1015.1
20260501213557 63 287 2.0 9.0 0.00 0.00 0.00 45 1015.1
20260501213331 63 288 2.0 9.0 0.00 0.00 0.00 44 1015.2
20260501213141 63 293 2.0 9.0 0.00 0.00 0.00 45 1015.3
20260501212739 63 301 2.0 8.0 0.00 0.00 0.00 43 1015.3
20260501212148 63 285 2.0 8.0 0.00 0.00 0.00 43 1015.3
20260501212012 63 285 2.0 8.0 0.00 0.00 0.00 44 1015.3
20260501211907 63 283 2.0 6.0 0.00 0.00 0.00 44 1015.3
20260501211431 63 284 2.0 6.0 0.00 0.00 0.00 42 1015.5
20260501210934 63 285 2.0 8.0 0.00 0.00 0.00 43 1015.6
20260501210830 63 286 2.0 8.0 0.00 0.00 0.00 44 1015.6
20260501210554 63 289 2.0 8.0 0.00 0.00 0.00 45 1015.6
20260501210204 63 289 2.0 8.0 0.00 0.00 0.00 41 1015.6
20260501205631 63 284 2.0 5.0 0.00 0.00 0.00 41 1015.7
20260501205336 63 281 2.0 9.0 0.00 0.00 0.00 42 1015.7
20260501205147 63 281 2.0 9.0 0.00 0.00 0.00 43 1015.7
20260501204826 63 281 2.0 9.0 0.00 0.00 0.00 42 1015.7
20260501204535 63 280 2.0 9.0 0.00 0.00 0.00 41 1015.8
20260501204336 63 284 2.0 8.0 0.00 0.00 0.00 40 1015.8
20260501204318 63 285 2.0 8.0 0.00 0.00 0.00 40 1015.8
20260501203807 63 282 2.0 8.0 0.00 0.00 0.00 40 1015.8
20260501203536 63 282 2.0 6.0 0.00 0.00 0.00 39 1015.9
20260501203129 63 276 2.0 6.0 0.00 0.00 0.00 39 1016.0
20260501202936 63 274 2.0 7.0 0.00 0.00 0.00 40 1016.0
20260501202341 64 280 2.0 7.0 0.00 0.00 0.00 41 1016.1
20260501202158 64 282 2.0 7.0 0.00 0.00 0.00 40 1016.1
20260501201927 64 285 2.0 7.0 0.00 0.00 0.00 41 1016.1
20260501201749 64 283 2.0 7.0 0.00 0.00 0.00 41 1016.1
20260501201524 64 277 2.0 7.0 0.00 0.00 0.00 42 1016.2
20260501201325 64 280 2.0 7.0 0.00 0.00 0.00 42 1016.2
20260501201203 64 280 2.0 7.0 0.00 0.00 0.00 43 1016.3
20260501200925 63 283 2.0 7.0 0.00 0.00 0.00 43 1016.2
20260501200742 63 283 2.0 7.0 0.00 0.00 0.00 42 1016.3
20260501200547 64 284 1.0 7.0 0.00 0.00 0.00 42 1016.3
20260501200353 64 280 1.0 7.0 0.00 0.00 0.00 43 1016.3
20260501200141 64 281 1.0 7.0 0.00 0.00 0.00 42 1016.5
20260501200002 64 279 1.0 7.0 0.00 0.00 0.00 42 1016.4
20260501195725 64 284 2.0 7.0 0.00 0.00 0.00 41 1016.3
20260501195553 64 281 2.0 7.0 0.00 0.00 0.00 44 1016.4
20260501195346 63 277 2.0 7.0 0.00 0.00 0.00 42 1016.4
20260501195124 63 277 3.0 8.0 0.00 0.00 0.00 40 1016.4
20260501195039 63 278 3.0 8.0 0.00 0.00 0.00 40 1016.4
20260501194726 63 274 3.0 8.0 0.00 0.00 0.00 41 1016.5
20260501194526 63 278 3.0 8.0 0.00 0.00 0.00 41 1016.5
20260501194325 63 280 3.0 8.0 0.00 0.00 0.00 40 1016.6
20260501194159 63 281 3.0 8.0 0.00 0.00 0.00 39 1016.6
20260501193950 63 281 2.0 8.0 0.00 0.00 0.00 41 1016.6
20260501193743 63 281 2.0 8.0 0.00 0.00 0.00 40 1016.5
20260501193526 63 279 2.0 8.0 0.00 0.00 0.00 40 1016.5
20260501193325 63 279 2.0 8.0 0.00 0.00 0.00 44 1016.5
20260501193132 63 278 2.0 6.0 0.00 0.00 0.00 42 1016.5
20260501192953 63 278 2.0 6.0 0.00 0.00 0.00 43 1016.5
20260501192753 63 279 2.0 5.0 0.00 0.00 0.00 42 1016.6
20260501192526 63 279 2.0 6.0 0.00 0.00 0.00 46 1016.4
20260501192344 63 283 2.0 6.0 0.00 0.00 0.00 45 1016.3
20260501192126 63 282 2.0 7.0 0.00 0.00 0.00 45 1016.5
20260501191926 63 281 2.0 7.0 0.00 0.00 0.00 46 1016.5
20260501191759 63 281 2.0 7.0 0.00 0.00 0.00 44 1016.5
20260501191543 63 281 2.0 7.0 0.00 0.00 0.00 44 1016.6
20260501191343 64 276 2.0 7.0 0.00 0.00 0.00 45 1016.7
20260501191139 64 279 2.0 7.0 0.00 0.00 0.00 47 1016.7
20260501191000 63 278 2.0 6.0 0.00 0.00 0.00 47 1016.6
20260501190758 63 280 2.0 7.0 0.00 0.00 0.00 47 1016.5